User: anonymous   Login
Location: Spring Creek
(38.2870°N, 100.2160°W)
Time: 03:39:11
(UTC+00:00)
Language:

Cosmos 2297 Rocket - Orbit

View from above orbital plane
View from above orbital plane
View from above satellite
View from above satellite

Ground track
Ground track

The orbit data is extracted from the following two-line orbital elements,

1 23405U 94077B   21207.49777252  .00000098  00000-0  74904-4 0  9991
2 23405  70.9842 300.8966 0004103 236.6709 123.4021 14.15244242377503
Epoch (UTC): 26 July 2021 11:56:47
Eccentricity: 0.0004103
inclination: 70.9842°
perigee height: 838 km
apogee height: 844 km
right ascension of ascending node: 300.8966°
argument of perigee: 236.6709°
revolutions per day: 14.15244242
mean anomaly at epoch: 123.4021°
orbit number at epoch: 37750

The dashed part of the orbit path shows where the satellite is in the earth's shadow,  

DLR